Location: Grantsboro
(35.1404°N, 76.8424°W)
Time: 09:44:50
(UTC+00:00)

NOSS 2-2 (D) - Pass Details

Date: 18 January 2020
Orbit: 485 x 1724 km, 63.3° (Epoch: 03 February)

Event Time Altitude Azimuth Distance (km) Brightness Sun altitude
Exits shadow 10:12:37 41° 48° (NE) 718 4.1 -24.6°
Drops below altitude 10° 10:15:12 10° 36° (NE) 1,727 6.2 -24.1°
Sets 10:17:28 0° 34° (NE) 2,695 7.2 -23.7°
